Simultaneous Nadir Overpasses (SNOs) Predictions

Prediction of SNOs between GOES-15 and METOP-C Satellite Orbit:

Table of predicted SNOs for the next 14.0 days since TLE Epoch: 2/13/2025
Index Date Time (GOES-15) GOES-15 Lat,Lon METOP-C Lat,Lon Distance(km) Time Diff (sec)
1 02/15/2025 05:27:13 0.00, 61.49 0.16, 60.65 94.18 80
2 02/16/2025 05:09:12 0.01, 61.47 -0.93, 65.66 476.66 80
3 02/17/2025 17:28:12 -0.00, 61.44 -0.07, 61.06 43.48 80
4 02/20/2025 05:26:22 -0.00, 61.45 -0.01, 61.50 4.99 80
5 02/22/2025 17:22:02 0.01, 61.42 0.12, 61.90 54.46 80
6 02/24/2025 05:40:51 -0.01, 61.46 0.93, 57.35 469.22 80
7 02/25/2025 05:22:51 -0.01, 61.46 -0.18, 62.35 100.42 80
8 02/26/2025 17:41:51 0.02, 61.42 -0.79, 57.74 419.21 80
9 02/27/2025 17:18:31 0.01, 61.43 0.32, 62.74 149.61 80
